Weather History for Asheville, NC

Change the Weather History Date:

Saturday, April 29, 2006

  Actual Average Record
Temperature  
Mean Temperature 52 °F 59 °F  
Max Temperature 59 °F 71 °F 89 °F (1970)
Min Temperature 44 °F 47 °F 28 °F (1967)
Degree Days  
Heating Degree Days 14 7  
Month to date heating degree days 295  
Since 1 July heating degree days 4067  
Cooling Degree Days 0 0  
Month to date cooling degree days 0  
Year to date cooling degree days 1  
Growing Degree Days 2 (Base 50)    
Moisture  
Dew Point 39 °F    
Average Humidity 63    
Maximum Humidity 93    
Minimum Humidity 37    
Precipitation  
Precipitation 0.00 in 0.11 in 1.51 in (1963)
Month to date precipitation 3.22  
Year to date precipitation 14.48  
Snow  
Snow 0.00 in 0.00 in 0.10 in (1874)
Month to date snowfall 0.7  
Since 1 July snowfall 9.9  
Snow Depth -    
Sea Level Pressure  
Sea Level Pressure 30.30 in    
Wind  
Wind Speed 3 mph (SSE)    
Max Wind Speed 10 mph    
Max Gust Speed -    
Visibility 10 miles    
Events      
T = Trace of Precipitation, MM = Missing Value Source: NWS Daily Summary

Daily Weather History Graph

Daily Weather History Graph

Search for Another Location

Airport:

Trip Planner

Search our weather history database for the weather conditions in past years. The results will help you decide how hot, cold, wet, or windy it might be!

Date:

Astronomy

Apr. 29, 2006 Rise Set
Actual Time 6:40 AM EDT 8:14 PM EDT
Civil Twilight 6:13 AM EDT 8:41 PM EDT
Nautical Twilight 5:41 AM EDT 9:14 PM EDT
Astronomical Twilight 5:07 AM EDT 9:48 PM EDT
Moon 7:36 AM EDT (4/29) 10:50 PM EDT (4/29)
Length of Visible Light 14h 28m
Length of Day
13h 33m
Waxing Crescent, 5% of the Moon is Illuminated
Apr 29
Waxing Crescent
May 5
First Quarter
May 13
Full
May 20
Last Quarter
May 27
New

Hourly Weather History & Observations

Time (EDT) Temp. Windchill Dew Point Humidity Pressure Visibility Wind Dir Wind Speed Gust Speed Precip Events Conditions
12:54 AM 48.0 °F - 43.0 °F 83% 30.21 in 10.0 mi Calm Calm - N/A   Clear
1:54 AM 46.0 °F - 43.0 °F 89% 30.22 in 10.0 mi Calm Calm - N/A   Clear
2:54 AM 44.6 °F - 42.8 °F 93% 30.24 in 8.0 mi Calm Calm - N/A   Clear
3:54 AM 50.0 °F - 39.9 °F 68% 30.22 in 10.0 mi Variable 6.9 mph - N/A   Clear
4:54 AM 45.0 °F - 41.0 °F 86% 30.26 in 10.0 mi Calm Calm - N/A   Clear
5:54 AM 48.9 °F - 37.9 °F 66% 30.27 in 10.0 mi Calm Calm - N/A   Clear
6:46 AM 48.2 °F - 39.2 °F 71% 30.33 in 10.0 mi Calm Calm - N/A   Mostly Cloudy
6:54 AM 48.0 °F - 39.9 °F 74% 30.30 in 10.0 mi Calm Calm - N/A   Mostly Cloudy
7:03 AM 46.4 °F 45.2 °F 39.2 °F 76% 30.34 in 10.0 mi WSW 3.5 mph - N/A   Scattered Clouds
7:54 AM 48.2 °F - 42.8 °F 82% 30.36 in 10.0 mi Variable 3.5 mph - N/A   Mostly Cloudy
8:54 AM 51.1 °F - 42.1 °F 71% 30.35 in 10.0 mi Calm Calm - N/A   Overcast
9:54 AM 55.0 °F - 39.0 °F 55% 30.36 in 10.0 mi Variable 3.5 mph - N/A   Clear
10:54 AM 55.0 °F - 34.0 °F 45% 30.36 in 10.0 mi ESE 5.8 mph - N/A   Clear
11:54 AM 55.0 °F - 28.9 °F 37% 30.35 in 10.0 mi East 8.1 mph - N/A   Clear
12:54 PM 55.9 °F - 34.0 °F 44% 30.34 in 10.0 mi South 9.2 mph - N/A   Clear
1:54 PM 57.0 °F - 36.0 °F 45% 30.34 in 10.0 mi South 10.4 mph - N/A   Partly Cloudy
2:54 PM 59.0 °F - 36.0 °F 42% 30.30 in 10.0 mi SSE 9.2 mph - N/A   Clear
3:54 PM 59.0 °F - 37.4 °F 45% 30.29 in 10.0 mi SSE 9.2 mph - N/A   Mostly Cloudy
4:54 PM 59.0 °F - 37.9 °F 46% 30.27 in 10.0 mi South 9.2 mph - N/A   Clear
5:54 PM 57.9 °F - 37.0 °F 46% 30.28 in 10.0 mi SSW 6.9 mph - N/A   Scattered Clouds
6:54 PM 57.9 °F - 37.9 °F 47% 30.29 in 10.0 mi SSW 4.6 mph - N/A   Clear
7:54 PM 55.9 °F - 39.9 °F 55% 30.31 in 10.0 mi South 4.6 mph - N/A   Clear
8:54 PM 55.0 °F - 41.0 °F 59% 30.31 in 10.0 mi ESE 3.5 mph - N/A   Clear
9:54 PM 53.1 °F - 43.0 °F 69% 30.31 in 10.0 mi Variable 3.5 mph - N/A   Mostly Cloudy
10:54 PM 53.1 °F - 43.0 °F 69% 30.30 in 10.0 mi Calm Calm - N/A   Clear
11:54 PM 52.0 °F - 44.1 °F 74% 30.31 in 10.0 mi Calm Calm - N/A   Clear